User: anonymous   Login
Location: Unspecified
(0.0000°N, 0.0000°E)
Time: 00:40:19
(UTC+00:00)
Language:

FORMOSAT 3C - Orbit

View from above orbital plane
View from above orbital plane
View from above satellite
View from above satellite

Ground track
Ground track

The orbit data is extracted from the following two-line orbital elements,

1 29049U 06011C   21023.68485046  .00000047  00000-0  34585-4 0  9991
2 29049  72.0209 104.0290 0034182  21.8918 338.3670 14.28825913771041
Epoch (UTC): 23 January 2021 16:26:11
Eccentricity: 0.0034182
inclination: 72.0209°
perigee height: 771 km
apogee height: 820 km
right ascension of ascending node: 104.0290°
argument of perigee: 21.8918°
revolutions per day: 14.28825913
mean anomaly at epoch: 338.3670°
orbit number at epoch: 77104

The dashed part of the orbit path shows where the satellite is in the earth's shadow,  

DLR